Temperature
21 21 21 20 20 20 20 20 19 19 19 19 19 19 18 18 18 18 18 18 17 17 17 17 17 17 17 17 16 16 16 16 16 16 16 16 16 16 15 15 15 15 15
21 21 21 20 20 20 20 19 19 19 19 19 19 19 18 18 18 18 18 18 17 17 17 17 17 17 17 16 16 16 16 16 16 16 16 16 16 15 15 15 15 15 15
21 21 20 20 20 20 20 19 19 19 19 19 19 18 18 18 18 18 18 17 17 17 17 17 17 16 16 16 16 16 16 16 16 16 16 16 15 15 15 15 15 15 15
21 20 20 20 20 20 20 19 19 19 19 19 18 18 18 18 18 18 17 17 17 17 17 17 17 16 16 16 16 16 16 16 16 15 15 15 15 15 15 15 15 15 14
21 21 20 20 19 19 19 19 19 19 19 18 18 18 18 17 17 17 17 17 17 17 17 17 17 16 16 16 16 16 16 15 15 15 15 15 15 15 15 15 14 14 14
21 20 20 20 19 19 19 19 19 18 18 18 18 18 18 17 17 17 17 17 17 17 17 17 17 16 16 16 16 16 16 15 15 15 15 15 15 15 14 14 14 14 13
20 20 20 19 19 19 18 18 18 18 18 17 17 17 17 17 17 17 17 17 17 17 17 17 17 16 16 16 16 15 15 15 15 15 15 15 15 14 14 14 14 13 13
19 19 19 19 19 19 18 18 18 18 17 17 17 17 17 17 17 17 17 17 17 16 16 16 16 16 16 15 15 15 15 15 15 15 15 15 14 14 14 14 14 13 13
19 18 18 18 18 18 18 18 18 17 17 17 17 17 17 17 17 17 16 16 16 16 16 16 16 16 15 15 15 15 15 15 14 14 14 14 14 14 13 13 13 13 13
18 18 18 17 17 17 17 17 17 17 17 17 17 17 17 17 17 16 16 16 16 16 16 15 15 15 15 15 15 15 15 14 14 14 14 14 14 13 13 13 13 13 13
17 17 17 17 17 17 17 17 16 16 16 16 16 16 16 16 16 16 16 15 15 15 15 15 15 15 15 14 14 14 14 14 14 14 14 13 13 13 13 13 13 12 12
16 16 16 16 16 16 16 16 16 16 16 16 16 16 16 16 15 15 15 15 15 14 14 14 14 14 14 14 14 14 14 13 13 13 13 13 13 13 12 12 12 12 12
16 16 16 16 15 15 15 15 15 15 15 15 15 15 15 15 15 15 14 14 14 14 14 14 14 14 13 13 13 13 13 13 13 13 13 12 12 12 12 12 12 11 11
15 15 15 15 15 15 15 15 15 14 14 14 14 14 14 14 14 14 14 14 14 14 13 13 13 13 13 13 13 13 13 12 12 12 12 12 11 11 11 11 11 11 11
14 14 14 14 14 14 14 14 14 14 14 14 14 14 13 13 13 14 13 13 13 13 13 13 12 12 12 12 12 12 12 12 12 11 11 11 11 11 11 10 10 10 10
13 13 13 13 13 13 13 13 13 13 13 13 13 13 13 13 13 13 13 13 13 13 12 12 12 12 12 12 12 12 12 11 11 11 11 11 10 10 10 10 9 9 9
13 13 13 13 12 12 13 13 13 13 13 13 12 12 12 12 12 12 12 12 12 12 12 12 11 12 12 11 11 11 11 11 10 10 10 10 10 9 9 9 9 9 9
12 12 12 12 12 12 12 12 12 12 12 12 12 12 12 12 11 11 11 11 11 11 11 11 11 11 11 11 10 10 10 10 10 10 9 9 9 9 9 8 8 8 8
12 12 12 12 11 11 11 11 11 11 11 11 11 11 11 11 11 11 11 11 10 10 10 10 10 10 10 10 10 10 9 9 9 9 9 9 8 8 8 8 8 8 8
11 11 11 11 11 11 11 11 11 11 10 10 10 10 10 10 10 10 10 10 10 10 10 9 10 10 10 9 9 9 9 9 8 8 8 8 8 8 8 7 7 7 7
11 11 10 10 10 10 10 10 10 10 10 10 10 10 10 10 10 10 9 9 9 9 9 9 9 9 9 9 9 9 8 8 8 8 8 8 8 7 7 7 7 6 6
10 10 10 10 10 10 10 10 10 9 9 9 9 9 9 9 9 9 9 9 9 9 9 8 8 8 8 8 8 8 8 8 8 8 8 7 7 7 7 6 6 6 6
10 10 9 9 9 9 9 9 9 9 9 9 9 9 9 9 8 8 8 8 8 8 8 8 8 8 8 8 8 8 8 7 7 7 7 7 7 7 6 6 6 6 6
9 9 9 9 9 9 9 9 9 9 9 9 9 8 8 8 8 8 8 8 8 8 8 8 7 7 7 7 7 7 7 7 7 7 7 6 6 6 6 6 6 5 5
9 9 9 9 9 9 9 9 8 8 8 8 8 8 8 8 7 7 7 7 7 7 7 7 7 7 7 7 7 7 7 7 7 6 6 6 6 6 6 5 5 5 5
9 9 9 8 8 8 8 8 8 8 8 8 8 7 7 7 7 7 7 7 7 7 7 7 7 7 7 6 6 6 6 6 6 6 6 6 6 5 5 5 5 5 5
Wind_Speed
9 8 7 7 7 7 6 7 6 5 5 5 5 5 5 5 5 5 5 4 5 4 4 4 5 4 3 3 3 3 4 4 4 3 2 1 2 2 1 2 2 2 2
7 7 7 6 6 6 7 6 6 6 5 5 5 6 6 6 5 5 6 5 5 5 5 5 5 4 4 3 3 4 4 4 4 4 2 2 2 2 2 2 2 2 2
6 6 6 6 7 7 7 6 5 6 5 5 5 6 6 6 6 6 6 5 5 6 5 5 5 4 4 4 4 4 3 3 3 3 3 2 2 1 1 2 2 1 2
5 5 6 6 7 7 6 6 6 5 5 5 6 6 5 5 5 6 6 6 6 6 6 6 6 6 6 5 4 5 4 3 3 3 3 2 2 1 2 2 2 2 2
5 5 5 4 4 4 5 5 5 5 6 5 5 4 4 4 5 5 6 6 6 6 5 5 6 6 7 6 5 5 4 4 3 3 3 2 3 2 3 3 3 2 2
5 4 4 3 3 3 4 4 4 5 5 4 5 5 5 5 6 7 6 5 5 6 5 5 5 6 6 7 7 7 7 6 5 4 4 4 5 5 4 3 3 2 3
4 3 3 3 4 4 5 4 5 5 5 4 5 5 5 5 7 7 7 5 5 5 5 5 4 4 5 4 5 5 6 6 7 6 5 6 5 5 5 5 5 5 4
2 2 1 2 3 4 4 5 5 5 5 5 6 6 6 6 7 7 7 6 5 5 5 5 5 4 4 4 4 4 4 4 5 5 5 6 5 4 6 6 5 4 1
1 1 2 2 2 3 4 4 4 4 5 5 6 7 6 6 6 7 6 4 4 5 5 4 4 4 4 5 5 4 4 3 3 4 4 3 2 3 4 3 3 3 3
1 1 1 2 2 3 4 4 3 4 5 5 5 4 4 4 5 6 7 4 4 4 3 3 4 4 4 6 5 5 5 4 2 1 1 0 0 1 3 4 4 4 2
1 1 1 1 2 3 2 2 3 3 3 3 3 2 2 3 4 5 6 4 4 4 3 3 3 4 4 5 5 4 5 3 2 2 1 1 1 0 1 1 2 3 3
1 1 1 1 1 2 2 2 2 3 3 3 3 2 2 2 2 3 5 5 5 4 3 3 2 4 4 5 4 3 3 3 2 2 1 1 0 0 0 1 1 1 1
2 2 2 1 1 1 1 2 1 2 3 3 3 3 2 1 1 2 3 4 5 3 2 2 2 3 3 3 3 4 4 3 3 2 2 2 1 1 1 1 1 1 1
1 1 2 2 2 2 1 1 1 2 2 3 3 3 2 2 1 1 1 2 2 2 1 1 2 2 2 2 2 2 2 3 3 3 2 1 0 0 1 1 1 1 1
1 1 1 1 1 1 1 1 1 2 3 4 4 3 3 3 3 3 3 2 2 2 2 1 1 2 2 1 1 2 2 2 2 2 2 2 1 1 0 0 0 1 1
1 2 1 1 1 1 0 1 3 1 1 1 2 3 2 3 3 3 3 2 3 4 3 2 2 3 3 3 3 2 2 2 2 2 2 2 2 2 1 0 1 1 1
1 2 1 1 1 1 1 1 1 3 3 2 0 1 2 3 2 2 3 3 4 6 3 3 3 3 3 3 3 3 3 3 2 2 2 2 2 2 1 1 1 1 1
2 2 2 2 2 1 1 1 1 1 1 2 1 1 2 2 2 3 4 5 3 2 2 3 3 3 3 3 3 3 3 3 2 2 2 2 2 2 2 2 2 2 1
2 2 2 2 1 1 1 1 1 1 1 1 0 1 1 1 2 2 4 3 3 2 3 3 3 3 3 3 3 2 3 3 3 3 2 2 2 2 2 2 2 2 2
2 2 2 1 1 1 1 1 1 1 2 1 1 1 1 1 1 1 2 2 3 3 3 3 3 2 2 2 2 2 2 2 2 2 2 2 2 2 2 3 2 2 2
2 2 2 1 1 2 2 2 1 1 2 2 2 2 3 2 2 2 2 2 3 3 3 3 3 2 2 2 2 3 3 2 2 2 2 2 2 2 2 2 2 2 2
1 1 1 1 1 1 1 1 1 2 2 2 1 1 2 2 2 2 2 2 2 2 2 3 2 2 2 2 3 3 3 3 2 2 2 2 2 2 2 2 2 2 2
0 0 0 0 0 1 0 1 1 2 2 2 1 1 1 1 2 2 2 2 2 1 2 2 2 2 1 1 2 3 3 3 3 4 3 3 2 2 2 2 2 2 2
1 1 1 1 1 1 1 0 1 1 1 1 1 1 1 1 2 2 2 2 2 2 2 2 3 3 3 2 2 2 3 3 3 4 5 4 3 3 3 3 3 3 3
1 1 1 1 1 0 0 0 0 1 1 1 1 1 1 1 2 1 1 2 2 2 2 2 2 3 3 3 3 2 2 2 2 3 4 4 4 3 3 3 3 2 2
2 2 1 1 1 1 0 0 1 1 1 1 1 1 1 2 2 2 2 2 2 2 2 2 3 4 4 3 3 2 2 2 2 3 3 3 3 3 3 3 3 2 2
Wind_Direction
193 198 200 198 195 188 197 206 209 205 200 196 196 195 197 199 197 198 208 205 214 227 229 228 235 223 216 215 211 209 210 201 225 251 228 238 206 211 210 201 213 215 218
194 191 193 190 187 196 208 212 202 203 203 202 197 200 203 205 201 204 216 212 215 226 230 228 237 225 215 217 211 214 217 212 211 237 236 219 218 215 218 222 218 218 221
183 188 192 193 194 201 205 201 200 205 205 202 202 209 211 208 204 207 213 217 219 225 224 222 229 218 224 224 220 222 224 218 206 215 237 228 232 214 219 230 228 230 229
169 183 196 205 204 203 203 194 201 204 205 208 211 215 215 214 211 209 210 215 219 223 223 223 225 217 223 221 222 223 217 209 204 210 230 237 240 225 211 226 239 237 236
165 184 202 207 200 196 198 195 202 207 216 211 207 210 210 212 217 210 213 218 220 225 227 229 230 223 221 217 217 214 205 207 208 220 232 231 229 222 228 220 229 236 232
173 192 194 183 192 202 203 192 192 204 208 199 199 202 210 221 213 204 205 219 220 223 231 236 235 232 230 221 220 211 200 203 211 218 231 234 237 229 222 218 216 225 244
166 175 186 185 192 203 210 198 196 201 195 203 212 212 222 229 217 214 210 213 219 223 226 229 232 234 216 218 219 213 211 210 206 209 223 234 238 224 210 215 217 224 234
148 170 193 210 206 203 205 203 199 198 199 207 217 222 225 236 225 221 214 212 222 227 225 220 215 223 220 208 205 211 221 225 224 219 229 239 240 224 213 218 219 220 229
146 199 209 204 217 221 218 215 207 209 215 217 216 216 220 234 223 216 205 211 222 231 230 224 214 216 219 196 197 215 233 249 238 221 231 247 248 215 192 182 184 198 234
206 233 234 219 207 221 222 220 213 215 220 217 222 222 221 236 228 212 201 212 222 229 228 226 221 219 213 193 203 210 230 244 220 208 213 308 216 185 184 197 197 201 218
241 224 221 227 218 219 225 219 212 210 214 219 231 242 239 242 234 216 202 207 218 223 223 227 226 204 200 191 197 211 222 212 184 178 162 124 87 107 178 205 201 199 205
299 279 262 235 222 208 198 221 212 198 210 224 223 238 246 255 248 227 207 208 207 210 220 224 210 185 189 185 189 203 190 161 141 139 139 155 181 232 229 186 169 179 199
339 329 328 341 316 267 224 222 220 210 219 230 223 230 245 236 243 232 210 206 201 203 213 206 192 168 168 181 181 165 153 148 148 159 189 221 241 233 158 126 122 120 87
325 319 331 334 323 330 314 261 237 239 232 225 221 226 238 243 240 225 207 207 200 199 198 153 133 131 141 132 125 143 154 159 165 183 196 209 211 123 124 112 121 109 80
319 301 314 309 287 309 337 326 258 250 226 220 225 218 219 237 241 205 189 207 205 193 167 147 159 164 165 165 156 152 154 155 174 188 182 174 179 182 180 149 132 119 154
345 332 324 315 297 254 213 7 14 328 21 295 228 206 228 224 214 196 182 194 184 159 146 172 192 191 192 194 187 180 171 182 194 195 195 194 196 197 192 156 140 152 176
232 272 282 278 268 262 245 230 313 351 27 34 50 164 186 194 195 185 169 139 133 141 148 177 196 204 201 198 195 193 200 200 193 188 197 202 198 195 185 183 178 157 170
242 251 252 249 248 244 254 254 245 251 300 336 0 126 169 178 179 173 156 124 108 129 172 193 205 211 206 201 199 199 200 196 182 183 194 199 184 182 188 194 201 196 200
256 262 260 253 252 242 238 241 240 231 220 242 353 14 90 117 110 128 137 137 160 177 195 206 209 208 208 205 197 194 195 193 183 185 192 195 196 188 193 197 202 194 195
271 273 266 253 255 248 233 227 234 224 224 220 222 234 183 129 118 110 134 160 175 188 194 197 199 195 197 196 180 177 181 186 184 193 201 200 200 196 196 195 197 204 213
273 279 277 251 236 238 233 225 221 219 228 231 245 237 197 194 197 190 192 191 196 199 195 190 185 184 186 185 181 182 187 195 199 201 204 205 199 197 202 199 206 211 209
259 262 258 248 244 242 233 218 209 217 221 222 242 251 184 188 196 201 209 219 219 205 192 183 186 193 197 197 190 186 192 200 208 212 207 204 200 198 194 193 202 213 211
232 11 335 319 146 123 126 182 203 212 215 219 221 225 203 201 203 206 206 205 200 202 194 183 187 199 208 206 204 198 200 209 213 208 204 202 201 202 200 200 206 212 219
109 108 97 79 75 98 108 136 212 215 219 223 222 220 214 206 202 203 203 196 194 201 199 192 194 200 203 206 210 209 215 222 218 211 202 198 200 203 206 208 211 209 212
83 87 81 74 70 78 103 85 281 249 240 241 231 217 207 203 201 199 203 200 194 202 212 207 204 207 210 213 214 216 196 188 199 206 201 198 197 200 205 210 211 213 217
75 76 69 65 59 39 40 359 289 274 252 239 232 224 207 202 207 215 214 204 203 212 222 224 218 213 215 217 218 200 177 165 167 179 191 190 189 198 201 206 206 210 210
Height
1503 1505 1508 1510 1511 1513 1515 1516 1518 1520 1521 1522 1522 1523 1524 1525 1526 1526 1527 1527 1528 1528 1528 1528 1528 1529 1528 1528 1528 1528 1529 1528 1527 1527 1527 1527 1527 1527 1527 1527 1526 1526 1525
1500 1502 1504 1506 1508 1510 1511 1513 1515 1516 1517 1518 1519 1520 1521 1522 1523 1523 1524 1524 1524 1525 1525 1525 1525 1525 1525 1525 1525 1525 1525 1525 1525 1524 1524 1524 1524 1524 1524 1523 1523 1523 1522
1497 1499 1501 1503 1504 1506 1507 1509 1511 1512 1513 1514 1515 1516 1517 1518 1518 1519 1520 1521 1521 1521 1522 1522 1522 1522 1521 1522 1522 1522 1522 1522 1521 1521 1521 1521 1520 1520 1520 1520 1520 1520 1519
1493 1496 1497 1499 1501 1502 1504 1504 1507 1508 1509 1510 1511 1512 1513 1513 1514 1515 1516 1516 1517 1517 1518 1518 1518 1517 1518 1518 1518 1518 1518 1518 1518 1518 1518 1518 1517 1517 1517 1517 1517 1517 1516
1490 1492 1493 1495 1498 1499 1500 1501 1503 1503 1504 1506 1507 1508 1509 1509 1510 1510 1511 1512 1513 1513 1513 1513 1514 1514 1514 1514 1514 1514 1514 1514 1514 1514 1514 1514 1514 1514 1514 1514 1513 1513 1513
1486 1488 1489 1491 1493 1495 1496 1497 1498 1499 1501 1502 1503 1504 1504 1505 1506 1506 1507 1508 1508 1508 1508 1509 1509 1510 1510 1510 1510 1510 1511 1511 1510 1510 1510 1510 1510 1510 1510 1510 1510 1510 1510
1482 1484 1485 1487 1488 1490 1492 1493 1494 1495 1496 1498 1499 1499 1499 1500 1501 1502 1502 1503 1503 1503 1504 1504 1504 1505 1506 1506 1506 1506 1507 1507 1507 1507 1507 1506 1507 1507 1507 1506 1506 1506 1506
1478 1480 1482 1483 1483 1485 1487 1488 1489 1490 1491 1492 1494 1494 1494 1495 1496 1497 1497 1498 1498 1499 1499 1499 1500 1500 1501 1502 1502 1502 1502 1503 1503 1503 1503 1503 1503 1503 1503 1503 1503 1503 1502
1476 1477 1479 1479 1479 1481 1482 1483 1484 1486 1487 1488 1488 1489 1490 1490 1491 1492 1493 1493 1493 1494 1495 1495 1495 1495 1496 1497 1498 1498 1498 1498 1499 1499 1499 1499 1499 1499 1499 1499 1498 1498 1498
1472 1474 1475 1476 1476 1477 1478 1479 1480 1482 1482 1483 1483 1484 1484 1485 1486 1487 1488 1488 1488 1489 1490 1490 1490 1491 1491 1492 1493 1493 1493 1494 1494 1494 1495 1494 1494 1494 1494 1494 1494 1494 1494
1470 1472 1472 1473 1473 1473 1473 1475 1476 1477 1478 1477 1478 1478 1480 1481 1482 1482 1483 1483 1484 1484 1485 1485 1485 1486 1486 1487 1488 1489 1489 1490 1490 1490 1490 1490 1490 1490 1490 1490 1490 1490 1490
1469 1469 1470 1470 1470 1470 1470 1471 1472 1472 1472 1473 1474 1474 1475 1476 1477 1477 1478 1479 1479 1480 1480 1481 1481 1482 1482 1483 1483 1484 1485 1486 1485 1485 1485 1485 1486 1486 1486 1486 1486 1486 1486
1466 1466 1466 1466 1467 1467 1467 1467 1467 1468 1469 1470 1471 1471 1471 1472 1472 1473 1474 1475 1475 1475 1476 1477 1477 1478 1478 1479 1479 1480 1481 1481 1481 1481 1481 1482 1482 1482 1482 1482 1482 1482 1482
1464 1463 1463 1463 1463 1464 1464 1464 1464 1464 1465 1466 1467 1468 1467 1468 1468 1469 1470 1470 1471 1471 1472 1473 1473 1474 1475 1475 1476 1476 1476 1477 1477 1478 1478 1478 1479 1479 1478 1478 1478 1478 1478
1461 1461 1460 1461 1461 1461 1461 1461 1461 1461 1462 1462 1463 1464 1463 1463 1464 1465 1465 1466 1467 1468 1469 1469 1470 1470 1471 1471 1472 1472 1472 1473 1473 1474 1474 1474 1474 1474 1474 1474 1474 1474 1474
1458 1458 1458 1458 1458 1458 1457 1457 1457 1458 1457 1458 1458 1459 1459 1460 1461 1461 1462 1463 1464 1464 1465 1465 1466 1467 1467 1467 1468 1468 1468 1468 1469 1470 1470 1470 1470 1470 1470 1470 1471 1471 1471
1456 1456 1456 1455 1455 1455 1454 1454 1453 1453 1453 1454 1455 1455 1456 1457 1458 1458 1459 1459 1460 1461 1461 1461 1462 1463 1464 1464 1464 1465 1465 1465 1465 1465 1466 1466 1466 1466 1466 1467 1467 1467 1467
1454 1454 1453 1452 1452 1451 1451 1451 1451 1450 1450 1450 1451 1452 1452 1453 1454 1455 1455 1456 1456 1456 1457 1458 1458 1459 1460 1460 1461 1461 1461 1462 1461 1462 1462 1462 1462 1462 1462 1463 1464 1464 1464
1451 1450 1450 1449 1449 1448 1449 1449 1449 1448 1448 1448 1448 1448 1449 1450 1450 1451 1451 1451 1452 1453 1453 1454 1455 1456 1456 1457 1456 1457 1457 1457 1457 1458 1459 1459 1459 1459 1459 1460 1461 1461 1462
1448 1448 1447 1446 1446 1446 1446 1446 1445 1445 1445 1445 1445 1446 1446 1447 1446 1447 1448 1448 1449 1450 1451 1451 1452 1452 1453 1453 1453 1454 1454 1454 1455 1455 1455 1456 1456 1456 1457 1457 1458 1459 1459
1446 1445 1444 1444 1443 1443 1443 1442 1442 1442 1442 1442 1443 1444 1444 1444 1443 1443 1444 1445 1446 1446 1447 1448 1449 1449 1450 1450 1451 1451 1451 1452 1452 1452 1453 1453 1453 1453 1454 1454 1455 1456 1456
1443 1442 1442 1441 1441 1440 1440 1439 1439 1440 1440 1440 1440 1441 1441 1441 1441 1441 1441 1442 1443 1443 1444 1445 1446 1446 1447 1448 1448 1448 1448 1448 1449 1449 1449 1449 1450 1450 1451 1451 1452 1453 1453
1441 1440 1439 1439 1438 1438 1438 1437 1437 1438 1438 1438 1438 1438 1438 1438 1438 1438 1439 1439 1440 1441 1442 1442 1443 1443 1444 1444 1445 1445 1445 1445 1446 1446 1446 1446 1446 1447 1448 1448 1449 1449 1450
1439 1439 1438 1437 1437 1436 1436 1436 1436 1436 1436 1436 1436 1436 1435 1436 1436 1436 1436 1437 1437 1438 1439 1439 1440 1440 1441 1441 1441 1441 1442 1442 1443 1443 1443 1443 1443 1444 1445 1445 1446 1446 1447
1438 1437 1437 1436 1436 1435 1435 1435 1434 1434 1434 1434 1433 1433 1433 1433 1433 1433 1434 1434 1434 1435 1435 1435 1436 1436 1437 1437 1437 1438 1438 1439 1439 1440 1440 1440 1440 1441 1442 1442 1443 1443 1444
1437 1437 1436 1436 1435 1435 1434 1434 1434 1433 1433 1433 1432 1432 1431 1431 1431 1431 1431 1431 1431 1431 1432 1432 1432 1433 1433 1433 1434 1434 1435 1435 1436 1436 1437 1437 1437 1438 1438 1439 1440 1440 1440